DW2728 Weather Reports


time (UTC)temp
F
wind
direction
speed
knots
gust
knots
rain 1hr
in
rain 24hr
in
rain mn
in
humidity
%
barometer
mb
20260507153803 60 277 5.2 11.3 0.00 0.00 0.00 62 1015.2
20260507152803 59 270 5.2 9.6 0.00 0.00 0.00 64 1015.4
20260507151803 58 268 5.2 7.8 0.00 0.00 0.00 68 1015.4
20260507150803 57 271 5.2 9.6 0.00 0.01 0.00 68 1015.4
20260507145803 56 273 4.3 9.6 0.00 0.02 0.00 70 1015.6
20260507144824 55 275 5.2 9.6 0.00 0.03 0.00 69 1015.6
20260507143824 54 272 4.3 8.7 0.00 0.04 0.00 74 1015.6
20260507142803 52 268 6.1 9.6 0.00 0.04 0.00 74 1015.6
20260507141802 51 268 6.1 8.7 0.00 0.05 0.00 77 1015.8
20260507140803 50 271 5.2 9.6 0.00 0.06 0.00 79 1015.9
20260507135804 48 271 4.3 7.8 0.00 0.07 0.00 82 1015.9
20260507134824 47 276 5.2 8.7 0.00 0.07 0.00 83 1015.8
20260507133803 45 276 4.3 7.0 0.00 0.08 0.00 86 1015.9
20260507132802 44 270 4.3 7.8 0.00 0.08 0.00 88 1016.0
20260507131803 42 263 3.5 6.1 0.00 0.09 0.00 90 1016.0
20260507130803 41 271 4.3 7.0 0.00 0.11 0.00 92 1016.2
20260507125802 40 263 3.5 5.2 0.00 0.12 0.00 93 1016.1
20260507124803 39 258 3.5 6.1 0.00 0.12 0.00 93 1016.1
20260507123824 39 264 3.5 6.1 0.00 0.13 0.00 95 1016.2
20260507122803 37 266 3.5 6.1 0.00 0.14 0.00 95 1016.1
20260507121803 36 269 4.3 6.1 0.00 0.15 0.00 95 1016.5
20260507120803 35 271 3.5 5.2 0.00 0.16 0.00 95 1016.7
20260507115803 35 267 2.6 4.3 0.00 0.16 0.00 94 1016.7
20260507114802 34 263 2.6 4.3 0.00 0.17 0.00 95 1016.7
20260507113803 34 274 2.6 5.2 0.00 0.17 0.00 94 1016.8
20260507112803 34 255 2.6 3.5 0.00 0.18 0.00 94 1016.9
20260507111803 34 229 1.7 3.5 0.00 0.18 0.00 94 1016.9
20260507110802 34 240 1.7 2.6 0.00 0.19 0.00 94 1017.1
20260507104803 34 224 1.7 3.5 0.00 0.21 0.00 94 1017.3
20260507103803 34 245 1.7 2.6 0.00 0.22 0.00 94 1017.5
20260507102802 34 260 1.7 2.6 0.00 0.23 0.00 94 1017.6
20260507101803 34 255 1.7 2.6 0.00 0.24 0.00 94 1017.7
20260507100804 34 251 1.7 3.5 0.00 0.25 0.00 94 1017.7
20260507095825 34 269 1.7 3.5 0.00 0.25 0.00 94 1017.8
20260507094804 34 261 1.7 3.5 0.00 0.26 0.00 94 1017.9
20260507093804 34 270 2.6 4.3 0.00 0.26 0.00 94 1018.1
20260507092804 34 270 2.6 5.2 0.00 0.27 0.00 94 1018.1
20260507090804 34 265 3.5 4.3 0.00 0.28 0.00 93 1018.1
20260507085804 35 262 3.5 5.2 0.00 0.28 0.00 94 1018.1
20260507084804 35 261 3.5 5.2 0.00 0.28 0.00 94 1018.2
20260507083804 35 263 4.3 5.2 0.00 0.29 0.00 94 1018.0
20260507082804 35 267 3.5 5.2 0.00 0.29 0.00 94 1018.4
20260507081804 35 265 3.5 6.1 0.00 0.29 0.00 94 1018.5
20260507080804 35 268 3.5 6.1 0.00 0.29 0.00 93 1018.7
20260507075804 35 267 3.5 5.2 0.00 0.29 0.00 93 1018.8
20260507074804 35 271 3.5 5.2 0.00 0.29 0.00 94 1019.0
20260507073804 35 268 3.5 5.2 0.00 0.30 0.00 93 1019.0
20260507072804 36 266 3.5 4.3 0.00 0.30 0.00 93 1019.2
20260507071803 36 265 3.5 5.2 0.00 0.31 0.00 93 1019.4
20260507070804 36 262 3.5 5.2 0.00 0.31 0.00 93 1019.5
20260507065804 36 260 3.5 4.3 0.00 0.32 0.00 93 1019.5
20260507064804 36 260 3.5 4.3 0.00 0.32 0.00 93 1019.7
20260507063803 36 258 2.6 4.3 0.00 0.32 0.00 92 1019.7
20260507062804 36 264 2.6 4.3 0.00 0.32 0.00 92 1019.9
20260507061825 36 263 2.6 3.5 0.00 0.32 0.00 92 1019.9
20260507060804 37 261 2.6 4.3 0.00 0.33 0.00 92 1020.0
20260507055804 37 264 3.5 4.3 0.00 0.33 0.00 92 1020.2
20260507054824 37 262 3.5 5.2 0.00 0.33 0.00 92 1020.1
20260507053804 37 264 3.5 5.2 0.00 0.33 0.00 92 1020.2
20260507052825 37 258 3.5 4.3 0.00 0.35 0.00 92 1020.2
20260507051804 37 265 2.6 4.3 0.00 0.36 0.00 92 1020.4
20260507050804 38 263 2.6 3.5 0.00 0.37 0.00 92 1020.3
20260507045804 38 264 2.6 3.5 0.00 0.25 0.00 93 1020.4
20260507044804 38 256 3.5 4.3 0.00 0.26 0.00 93 1020.7
20260507043803 38 258 2.6 5.2 0.00 0.28 0.00 93 1020.6
20260507042804 38 262 2.6 5.2 0.00 0.30 0.00 93 1020.8
20260507041824 38 260 3.5 4.3 0.00 0.55 0.49 93 1020.8
20260507040804 38 255 2.6 3.5 0.00 0.56 0.49 93 1020.7
20260507035803 38 262 2.6 3.5 0.00 0.59 0.49 93 1020.7
20260507034804 38 261 2.6 3.5 0.00 0.62 0.49 93 1020.7
20260507033824 37 262 2.6 3.5 0.00 0.64 0.49 92 1020.8
20260507032825 38 264 1.7 2.6 0.00 0.66 0.49 91 1020.8
20260507031803 38 265 1.7 2.6 0.00 0.67 0.49 91 1020.7
20260507030804 38 270 1.7 3.5 0.00 0.69 0.49 91 1020.8
20260507025804 38 272 0.9 3.5 0.00 0.69 0.49 90 1020.7
20260507024803 39 266 1.7 1.7 0.00 0.69 0.49 90 1020.6
20260507023825 40 266 0.9 1.7 0.00 0.69 0.49 89 1020.3
20260507022803 40 266 0.9 1.7 0.00 0.69 0.49 89 1020.2
20260507021803 41 262 0.9 1.7 0.00 0.69 0.49 88 1020.0
20260507020804 42 281 0.9 1.7 0.00 0.69 0.49 89 1020.0
20260507015824 42 295 0.9 1.7 0.00 0.69 0.49 88 1019.9
20260507014804 43 285 0.0 1.7 0.00 0.69 0.49 88 1019.9
20260507013803 44 286 0.0 1.7 0.00 0.69 0.49 88 1019.8
20260507012825 44 287 0.9 1.7 0.00 0.69 0.49 88 1019.8
20260507011803 44 268 0.9 1.7 0.00 0.69 0.49 88 1019.8
20260507010804 44 269 0.9 1.7 0.00 0.69 0.49 88 1019.7
20260507005803 44 269 0.0 0.0 0.00 0.69 0.49 88 1019.6
20260507004804 44 269 0.0 1.7 0.00 0.69 0.49 87 1019.7
20260507003803 45 268 0.9 3.5 0.00 0.69 0.49 86 1019.7
20260507002804 45 274 0.9 3.5 0.00 0.69 0.49 86 1019.7
20260507001803 45 283 1.7 3.5 0.00 0.69 0.49 87 1019.8
20260507000804 45 268 0.9 3.5 0.00 0.69 0.49 87 1019.6
20260506235803 45 282 0.9 4.3 0.01 0.69 0.49 88 1019.8
20260506234804 45 274 2.6 4.3 0.01 0.69 0.49 87 1020.3
20260506233803 45 289 1.7 3.5 0.01 0.69 0.49 88 1020.2
20260506232804 46 276 1.7 3.5 0.01 0.69 0.49 88 1020.1
20260506231803 46 293 0.9 3.5 0.00 0.68 0.48 88 1020.0
20260506230804 46 274 1.7 3.5 0.00 0.69 0.48 87 1020.0
20260506225803 46 268 0.9 3.5 0.01 0.69 0.48 87 1019.9
20260506224804 46 278 1.7 3.5 0.01 0.70 0.48 87 1019.9
20260506223803 46 265 0.9 2.6 0.01 0.70 0.48 87 1019.9
20260506222804 46 255 0.9 1.7 0.01 0.71 0.48 87 1019.8
20260506221803 46 254 0.9 2.6 0.01 0.73 0.48 87 1019.7
20260506220804 45 233 0.9 4.3 0.01 0.74 0.48 87 1019.8
20260506215803 45 221 1.7 5.2 0.00 0.75 0.47 87 1019.8
20260506214803 45 211 3.5 5.2 0.00 0.76 0.47 88 1019.9
20260506213825 45 190 2.6 5.2 0.00 0.77 0.47 88 1019.9
20260506212803 45 168 0.9 4.3 0.00 0.78 0.47 87 1019.9
20260506211804 45 158 3.5 5.2 0.00 0.78 0.47 86 1019.9
20260506210803 46 183 3.5 6.1 0.00 0.78 0.47 86 1020.0
20260506205804 46 196 2.6 4.3 0.00 0.78 0.47 86 1020.0
20260506204803 46 212 0.9 4.3 0.00 0.78 0.47 88 1019.9
20260506203804 46 214 1.7 5.2 0.00 0.78 0.47 87 1020.0
20260506202803 45 160 2.6 6.1 0.00 0.78 0.47 88 1020.0
20260506201825 45 163 3.5 7.0 0.00 0.78 0.47 88 1020.2
20260506200804 45 136 3.5 7.0 0.00 0.78 0.47 88 1020.3
20260506195803 45 162 1.7 5.2 0.00 0.78 0.47 90 1020.2
20260506194803 45 135 2.6 6.1 0.00 0.78 0.47 90 1020.2
20260506193804 45 152 2.6 5.2 0.00 0.78 0.47 91 1020.2
20260506192803 45 106 3.5 6.1 0.00 0.78 0.47 92 1020.3
20260506191804 45 123 4.3 6.1 0.00 0.78 0.47 93 1020.3
20260506190803 44 95 3.5 7.0 0.00 0.78 0.47 94 1020.4
20260506185804 44 109 4.3 7.0 0.00 0.78 0.47 95 1020.4
20260506184803 43 79 3.5 5.2 0.00 0.78 0.47 96 1020.7
20260506183804 43 13 0.9 6.1 0.00 0.78 0.47 96 1020.8
20260506182803 43 88 2.6 5.2 0.00 0.78 0.47 96 1021.0
20260506181804 43 81 3.5 7.0 0.00 0.78 0.47 96 1021.0
20260506180803 42 32 1.7 6.1 0.00 0.78 0.47 97 1021.0
20260506175803 42 76 2.6 5.2 0.00 0.78 0.47 97 1021.1
20260506174803 41 52 2.6 6.1 0.00 0.78 0.47 97 1021.2
20260506173804 40 32 3.5 5.2 0.00 0.78 0.47 97 1021.1
20260506172803 40 56 3.5 5.2 0.00 0.78 0.47 97 1021.1
20260506171825 39 58 3.5 5.2 0.00 0.78 0.47 97 1021.1
20260506170803 39 46 3.5 5.2 0.00 0.78 0.47 97 1020.9
20260506165804 39 31 2.6 5.2 0.03 0.78 0.47 97 1021.0
20260506164804 38 59 2.6 5.2 0.02 0.77 0.46 97 1021.1
20260506163803 37 48 3.5 4.3 0.02 0.77 0.46 97 1020.9
20260506162803 37 41 2.6 5.2 0.02 0.77 0.46 97 1020.8
20260506161804 37 31 3.5 5.2 0.01 0.76 0.45 97 1020.7
20260506160803 37 20 2.6 4.3 0.00 0.75 0.44 97 1020.6
20260506155804 36 12 2.6 5.2 0.03 0.75 0.44 97 1020.6
20260506154803 36 7 4.3 6.1 0.02 0.74 0.43 96 1020.6